www.pogodaiklimat.ru

Погода и климат >> Архив погоды >> Боливия >> San Ramon


ПОГОДА в San Ramon

  • Прогноз погоды в San Ramon
  • Монитор погоды в San Ramon
  • Климат города

АРХИВ ПОГОДЫ в San Ramon

Время (UTC), дата Ветер
(напр.,м/с)
 
Видим.   Явления Облачность Т
(С)
Тd
(С)
f
(%)
Тe
(С)
Тes
(С)
Комфортность P
(гПа)
Po
(гПа)
Тmin
(С)
Tmax
(С)
R
(мм)
R24
(мм)
S
(см)
12 19.09 СВ 2 15 км 6/0 2000 м
[Ac lent Ci sp]
+23.5 +22.4 94 +31 +34 очень
душно
1009.4 993.4 +21.0
15 19.09 С 2 15 км 8/0
[Cs]
+29.2 +22.5 67 +38 +54 опасность
солнечного
удара
1009.9 994.0
21 19.09 СЗ 3 15 км 8/3 600 м
[Cu med, cong Ci]
+35.1 +22.8 49 +45 +46 опасность
перегрева
1006.3 990.6 +36.1
12 20.09 С 2 15 км 9/0
[Ci]
+26.0 +23.9 88 +36 +39 очень
душно
1010.6 994.5 +23.5
15 20.09 СЗ 6 15 км 9/1 500 м
[Cu med, cong Ac trans Ci]
+33.0 +24.2 60 +45 +49 опасность
перегрева
1011.2 995.5
18 20.09 СЗ 5 15 км 9/5 500 м
[Cu med, cong Ci]
+36.5 +22.9 46 +46 +50 опасность
перегрева
1008.7 993.0
21 20.09 В 4 7000 м гроза без осадков туман 10/6 500 м
[Cb cap Cs]
+29.2 +21.9 65 +38 +38 очень
душно
1007.9 992.2 +36.9
12 21.09 СЗ 2 15 км 8/0
[Ci]
+25.1 +22.8 87 +33 +36 очень
душно
1011.1 995.1 +22.7
15 21.09 СЗ 4 15 км 4/0 2000 м
[Ac trans]
+32.4 +23.6 60 +44 +53 опасность
перегрева
1012.8 997.0
18 21.09 СЗ 6 15 км 6/6 500 м
[Cu med, cong]
+35.4 +21.7 45 +43 +46 опасность
перегрева
1009.8 994.1
21 21.09 СЗ 3 15 км 3/3 500 м
[Cu med, cong]
+36.0 +21.4 43 +44 +45 опасность
перегрева
1006.9 991.2 +36.9
12 22.09 СЗ 3 15 км 8/0 2000 м
[Ac trans Ci]
+25.9 +21.3 76 +33 +35 очень
душно
1011.4 995.4 +22.9
15 22.09 СЗ 4 15 км 8/0 2000 м
[Ac trans]
+31.2 +22.8 61 +41 +48 опасность
перегрева
1011.8 996.0
18 22.09 СЗ 4 7000 м гроза без осадков туман 8/8 500 м
[Cb cap]
+35.6 +21.6 44 +43 +46 опасность
перегрева
1009.2 993.5
21 22.09 СЗ 2 15 км в посл. час гроза 10/4 500 м
[Cb cap Cs]
+26.7 +21.6 74 +34 +35 очень
душно
1007.2 991.5 +36.1
12 23.09 СВ 2 15 км 4/0 2000 м
[Ac lent]
+25.5 +22.7 85 +34 +37 очень
душно
1010.9 994.9 +23.2
15 23.09 С 4 15 км 4/1 600 м
[Cu hum Ac lent]
+32.0 +22.0 56 +41 +50 опасность
перегрева
1011.9 995.7
18 23.09 С 3 15 км 4/1 600 м
[Cu hum Ac trans]
+33.2 +21.5 50 +41 +51 опасность
перегрева
1009.6 993.8
21 23.09 С 3 15 км 4/3 600 м
[Cb cap Ci sp]
+34.5 +21.3 46 +42 +43 опасность
перегрева
1007.3 991.5 +35.2
12 24.09 СЗ 2 15 км 9/0 2000 м
[Ac trans]
+25.1 +22.1 83 +32 +34 очень
душно
1011.2 995.1 +22.3
15 24.09 СЗ 4 15 км 5/0 2000 м
[Ac trans]
+33.7 +21.1 48 +41 +50 опасность
перегрева
1011.8 996.0
18 24.09 С 6 15 км 3/1 600 м
[Cu med, cong Ac trans]
+36.3 +20.9 41 +43 +48 опасность
перегрева
1008.9 993.2
21 24.09 С 4 15 км 3/3 600 м
[Cb cap]
+36.3 +18.8 36 +41 +42 опасность
перегрева
1006.1 990.4 +37.6
12 25.09 С 2 15 км 4/0
[Ac trans]
+27.3 +22.7 76 +36 +39 очень
душно
1010.0 994.0 +23.4
15 25.09 С 3 15 км 4/1 600 м
[Cu hum Ac trans]
+33.7 +20.5 46 +40 +52 опасность
солнечного
удара
1010.2 994.5
18 25.09 С 4 15 км 5/3 600 м
[Cu med, cong Ac trans]
+36.0 +19.7 39 +42 +48 опасность
перегрева
1008.2 992.5
21 25.09 СЗ 4 15 км 3/3 600 м
[Cu med, cong]
+36.0 +20.6 41 +43 +44 опасность
перегрева
1004.7 989.0 +37.5

 

Местоположение метеостанции San Ramon (Боливия): широта -13.30 долгота -64.70 высота над уровнем моря 140 м.

В архиве по умолчанию представлена погода в San Ramon за последнюю неделю. Архивные данные за месяц целиком и за предыдущие месяцы, начиная с января 2011 года, Вы можете получить, выбрав интересующий диапазон дат из раскрывающегося списка и нажав кнопку "Ввод!".


*Определитесь, кто Вы:
робот инопланетянин человек

Внимание! Время в таблицах - всемирное. Для получения местного времени необходимо прибавить поправку, которая в San Ramon равна -4 ч.

Смотрите также архив погоды в соседних городах и на ближайших метеорологических станциях:

Погода в San Joaquin (Боливия) (29 км)
Погода в Magdalena (Боливия) (64 км)
Погода в Baures (Боливия) (93 км)
Погода в Santa Ana (Боливия) (94 км)
Погода в Trinidad (Боливия) (169 км)
Погода в San Ignacio De Moxo (Боливия) (204 км)
Погода в Santa Rosa (Боливия) (257 км)
Погода в San Borja (Боливия) (291 км)
Погода в Riberalta (Боливия) (298 км)
Погода в Reyes (Боливия) (311 км)

Пояснения к столбцам:

Ветер - указаны скорость ветра в м/с - средняя за 10 мин, порывы в срок и между сроками (в фигурных скобках) и направление, откуда дует ветер: С - северный, СВ - северо-восточный, В - восточный, ЮВ - юго-восточный, Ю - южный, ЮЗ - юго-западный, З - западный, СЗ - северо-западный.
Видимость - горизонтальная дальность видимости в метрах или километрах. При видимости от 1 до 10 км при отсутствии осадков обычно наблюдается дымка, при ухудшении видимости до 1 км и менее - туман. В сухую погоду видимость может ухудшаться дымом, пылью или мглою.
Явления - указаны атмосферные явления, наблюдавшиеся в срок или в последний час перед сроком; фигурными скобками обозначены явления, наблюдавшиеся между сроками (за 1-3 часа до срока); квадратными скобками обозначены град или гололедные отложения с указанием их диаметра в мм.
Облачность - указаны через наклонную черту общая и нижняя облачность в баллах и высота нижней границы облаков в метрах; квадратными скобками обозначены формы облаков: Ci - перистые, Cs - перисто-слоистые, Cc - перисто-кучевые, Ac - высококучевые, As - высокослоистые, Sc - слоисто-кучевые, Ns - слоисто-дождевые, Cu - кучевые, Cb - кучево-дождевые. Подробнее классификацию облаков см. в Атласе облаков (PDF).
T - Температура воздуха - температура, измеренная на высоте 2 м над землей.
Td - Температура точки росы - температура, при понижении до которой содержащийся в воздухе водяной пар достигнет насыщения.
f - Относительная влажность воздуха - влажноcть воздуха, измеренная на высоте 2 м над землей.
Te - Эффективная температура - температура, которую ощущает одетый по сезону человек в тени. Характеристика душности погоды. При расчете учитывается влияние влажности воздуха и скорости ветра на теплоощущения человека.
Tes - Эффективная температура на солнце - температура, которую ощущает человек, с поправкой на солнечный нагрев. Характеристика знойности погоды. Зависит от высоты солнца над горизонтом, облачности и скорости ветра. Ночью, в пасмурную погоду, а также при ветре 12 м/с и более поправка равна нулю.
P - Атмосферное давление - приведенное к уровню моря атмосферное давление.
Po - Атмосферное давление - измеренное на уровне метеостанции атмосферное давление.
Tmin - Минимальная температура - минимум температуры воздуха на высоте 2 м над землей.
Tmax - Максимальная температура - максимум температуры воздуха на высоте 2 м над землей.
R - Количество осадков - Количество выпавших осадков за период времени, мм. При наведении курсора мыши на число - период времени, за который выпало указанное количество осадков.
R24 - Количество осадков - Количество выпавших осадков за 24 часа, мм.
S - Снежный покров - Высота снежного покрова, см. При наведении курсора мыши на число - состояние снежного покрова и степень покрытия местности в баллах.